Orbital Elements at Epoch 2459000.5 (2020-May-31.0) TDB
Reference: JPL 19 (heliocentric ecliptic J2000)
Element | Value | Uncertainty (1-sigma) | Units |
e | .0830438301802498 | 5.5034e-08 | |
a | 3.105705337935532 | 2.5325e-08 | au |
q | 2.847795671262118 | 1.8069e-07 | au |
i | 19.60936601689311 | 5.0343e-06 | deg |
node | 94.21988052910399 | 1.6103e-05 | deg |
peri | 78.13015044520024 | 3.7509e-05 | deg |
M | .1839211469819803 | 3.1789e-05 | deg |
tp | 2458999.478665586617 (2020-May-29.97866559) | 0.00017653 | TDB |
period | 1999.119703476698 5.47 | 2.4452e-05 6.695e-08 | d yr |
n | .1800792615739411 | 2.2026e-09 | deg/d |
Q | 3.363615004608946 | 2.7428e-08 | au |
|
| | Orbit Determination Parameters
Additional Information
|